This is the latest recevied weather packets stored in our database for station/object KF5WCW-1. If no packets are shown the sender has not sent any weather packets the latest 10 day(s).
| Time | Temp. | Humidity | Pressure | Rain* | Wind** | Luminosity | Snow |
|---|---|---|---|---|---|---|---|
| 1778072768 | -0.56° C | 95% | 0 hPa | 0.25 mm | - | - | - |
| 1778072468 | -0.56° C | 95% | 0 hPa | 0.25 mm | - | - | - |
| 1778072168 | -0.56° C | 95% | 0 hPa | 0.25 mm | - | - | - |
| 1778071868 | -0.56° C | 95% | 0 hPa | 0 mm | - | - | - |
| 1778071568 | -0.56° C | 95% | 0 hPa | 0 mm | - | - | - |
| 1778071268 | -1.11° C | 94% | 0 hPa | 0 mm | - | - | - |
| 1778070968 | -1.11° C | 92% | 0 hPa | 0 mm | - | - | - |
| 1778070667 | -1.11° C | 91% | 0 hPa | 0 mm | - | - | - |
| 1778070368 | -1.11° C | 90% | 0 hPa | 0 mm | - | - | - |
| 1778070068 | -1.11° C | 93% | 0 hPa | 0 mm | - | - | - |
| 1778069768 | -1.11° C | 95% | 0 hPa | 0 mm | - | - | - |
| 1778069468 | -1.11° C | 93% | 0 hPa | 0 mm | - | - | - |
| 1778069168 | -1.11° C | 90% | 0 hPa | 0 mm | - | - | - |
| 1778068868 | -1.11° C | 90% | 0 hPa | 0 mm | - | - | - |
| 1778068568 | -1.11° C | 89% | 0 hPa | 0.25 mm | - | - | - |
| 1778068268 | -0.56° C | 89% | 0 hPa | 0.51 mm | - | - | - |
| 1778067968 | -1.11° C | 90% | 0 hPa | 0.76 mm | - | - | - |
| 1778067668 | -1.11° C | 91% | 0 hPa | 1.27 mm | - | - | - |
| 1778067368 | -1.11° C | 91% | 0 hPa | 1.27 mm | - | - | - |
| 1778067068 | -1.11° C | 93% | 0 hPa | 1.52 mm | - | - | - |
| 1778066768 | -1.11° C | 95% | 0 hPa | 1.78 mm | - | - | - |
| 1778066468 | -1.11° C | 95% | 0 hPa | 1.78 mm | - | - | - |
| 1778066168 | -1.11° C | 94% | 0 hPa | 1.78 mm | - | - | - |
| 1778065868 | -1.11° C | 94% | 0 hPa | 2.03 mm | - | - | - |
| 1778065568 | -1.11° C | 95% | 0 hPa | 2.03 mm | - | - | - |
* Rain latest hour (hover to see other rain measurements)
** Current wind speed in m/s (hover to see current wind gust speed)